Location: Newark
(40.9833°N, 0.0333°W)
Time: 23:50:51
(UTC+00:00)

Altair - Pass Details

Date: 29 October 2020
Orbit: 1502 x 1682 km, 47.2° (Epoch: 03 December)

Event Time Altitude Azimuth Distance (km) Brightness Sun altitude
Rises 11:41:15 0° 297° (WNW) 4,787 9.9 35.3°
Reaches altitude 10° 11:44:27 10° 292° (WNW) 3,825 9.5 35.3°
Maximum altitude 11:53:35 47° 223° (SW) 2,085 9.4 35.3°
Drops below altitude 10° 12:03:00 10° 154° (SSE) 3,921 10.6 35.1°
Sets 12:06:20 0° 148° (SSE) 4,915 10.8 35.1°
